Flag for India Weather past 2 weeks in Muktsar, Punjab, India

Now
79 °F

Scattered clouds.


Feels Like: 79 °F
Forecast: 66 / 78 °F
Wind: 12 mph from Southeast

Location: Lahore Airport

Current Time: Apr 2, 2015 at 1:00:59 PM

Latest Report: Apr 2, 2015 at 12:25 PM


Visibility: 6 mi

Pressure: 29.80 "Hg

Humidity: 45%

Dew point: 55 °F

Location of MuktsarLocation

Historic Weather in Muktsar — Graph

°F

Muktsar temperature yesterday

Maximum temperature yesterday: 73 °F (at 1:25 PM)
Minimum temperature yesterday: 63 °F (at 5:30 AM)
Average temperature yesterday: 69 °F

Past Weeks' High & Low Weather Summary

 TemperatureHumidityPressure
High95 °F (Mar 28, 3:30 PM)100% (Mar 30, 2:25 AM)30.09 "Hg (Mar 30, 2:25 AM)
Low57 °F (Mar 19, 6:55 AM)23% (Mar 23, 3:55 PM)29.68 "Hg (Apr 2, 3:55 AM)
Average75 °F59%29.91 "Hg
* Reported Mar 18 11:55 AM — Apr 2 11:55 AM, Muktsar, Weather by CustomWeather, © 2015

Note: Actual official high and low records may vary slightly from our data, if they occured in-between our weather recording intervals... More about our weather records

Advertising

Muktsar weather history for previous 24 hours

 ConditionsComfort  
Time TempWeatherWind HumidityBarometerVisibility
11:55 AM
Thu, Apr 2
77 °FPassing clouds.13 mph44%29.80 "Hg6 mi
11:25 AM75 °FPassing clouds.15 mph50%29.80 "Hg6 mi
10:55 AM73 °FPassing clouds.13 mph53%29.80 "Hg6 mi
10:25 AM73 °FPassing clouds.14 mph53%29.83 "Hg6 mi
9:55 AM72 °FPassing clouds.15 mph57%29.80 "Hg5 mi
9:25 AM70 °FPassing clouds.12 mph60%29.80 "Hg5 mi
8:55 AM66 °FPassing clouds.N/A56%29.80 "Hg4 mi
8:25 AM64 °FPassing clouds.9 mph73%29.80 "Hg4 mi
7:55 AM63 °FScattered clouds.12 mph77%29.77 "Hg3 mi
7:25 AM63 °FScattered clouds.10 mph77%29.77 "Hg3 mi
6:55 AM61 °FScattered clouds.9 mph83%29.74 "Hg2 mi
6:25 AM61 °FScattered clouds.12 mph83%29.74 "Hg2 mi
5:30 AM59 °FPartly cloudy.12 mph88%29.74 "Hg2 mi
4:55 AM59 °FPartly cloudy.14 mph88%29.74 "Hg2 mi
4:25 AM59 °FPartly cloudy.13 mph88%29.74 "Hg2 mi
3:55 AM61 °FThunderstorms. Partly cloudy.5 mph83%29.68 "Hg2 mi
3:25 AM61 °FThunderstorms. Partly cloudy.6 mph83%29.71 "Hg2 mi
2:55 AM61 °FThunderstorms. Partly cloudy.7 mph83%29.71 "Hg2 mi
2:25 AM61 °FThunderstorms. Partly cloudy.6 mph83%29.71 "Hg2 mi
1:25 AM61 °FPassing clouds.9 mph83%29.74 "Hg2 mi
12:55 AM61 °FPassing clouds.8 mph88%29.77 "Hg2 mi
12:25 AM63 °FPassing clouds.7 mph83%29.77 "Hg2 mi
11:55 PM
Wed, Apr 1
63 °FPassing clouds.9 mph83%29.77 "Hg2 mi
11:25 PM63 °FPassing clouds.9 mph83%29.77 "Hg2 mi
9:25 PM66 °FPassing clouds.9 mph73%29.77 "Hg2 mi
8:55 PM66 °FPassing clouds.7 mph68%29.77 "Hg2 mi
8:25 PM68 °FPassing clouds.8 mph64%29.74 "Hg2 mi
7:55 PM68 °FPassing clouds.7 mph69%29.74 "Hg2 mi
7:25 PM70 °FPassing clouds.10 mph69%29.74 "Hg2 mi
6:55 PM73 °FPassing clouds.10 mph65%29.74 "Hg2 mi
6:25 PM73 °FScattered clouds.9 mph65%29.74 "Hg2 mi
5:55 PM73 °FScattered clouds.12 mph69%29.74 "Hg2 mi
5:25 PM73 °FScattered clouds.6 mph69%29.74 "Hg2 mi
4:55 PM73 °FBroken clouds.6 mph78%29.71 "Hg2 mi
4:25 PM73 °FBroken clouds.8 mph78%29.71 "Hg2 mi
3:55 PM73 °FBroken clouds.6 mph78%29.74 "Hg2 mi
3:25 PM73 °FLight rain. Broken clouds.7 mph83%29.77 "Hg2 mi
2:55 PM73 °FLight rain. Broken clouds.10 mph78%29.77 "Hg2 mi
2:25 PM73 °FLight rain. Broken clouds.9 mph78%29.80 "Hg2 mi
1:55 PM73 °FRain. Mostly cloudy.12 mph74%29.80 "Hg2 mi
1:25 PM73 °FScattered clouds.6 mph74%29.83 "Hg2 mi
Weather by CustomWeather, © 2015

See weather overviewHow to use our weather pages